| time (UTC) | temp F | wind direction | speed knots | gust knots | rain 1hr in | rain 24hr in | rain mn in | humidity % | barometer mb |
| 20260510234249 | 55 | 345 | 0.9 | 0.9 | 0.00 | 0.37 | 0.37 | 99 | 1012.5 |
| 20260510233744 | 55 | 344 | 0.0 | 0.0 | 0.00 | 0.37 | 0.37 | 99 | 1012.8 |
| 20260510233241 | 55 | 139 | 0.9 | 1.7 | 0.00 | 0.37 | 0.37 | 99 | 1012.4 |
| 20260510232737 | 56 | 144 | 1.7 | 1.7 | 0.00 | 0.37 | 0.37 | 99 | 1012.3 |
| 20260510232232 | 56 | 56 | 0.9 | 0.9 | 0.00 | 0.37 | 0.37 | 98 | 1012.5 |
| 20260510231730 | 57 | 195 | 0.0 | 0.0 | 0.00 | 0.37 | 0.37 | 97 | 1012.2 |
| 20260510231227 | 57 | 213 | 0.0 | 0.0 | 0.00 | 0.37 | 0.37 | 97 | 1012.4 |
| 20260510230723 | 57 | 260 | 0.0 | 0.0 | 0.00 | 0.37 | 0.37 | 97 | 1012.1 |
| 20260510230219 | 57 | 260 | 0.0 | 0.0 | 0.00 | 0.37 | 0.37 | 97 | 1011.9 |
| 20260510225716 | 57 | 292 | 0.0 | 0.9 | 0.00 | 0.37 | 0.37 | 97 | 1012.0 |
| 20260510225211 | 58 | 114 | 0.9 | 0.9 | 0.00 | 0.37 | 0.37 | 96 | 1011.9 |
| 20260510224708 | 58 | 337 | 0.9 | 0.9 | 0.00 | 0.37 | 0.37 | 96 | 1011.8 |
| 20260510224204 | 58 | 156 | 0.0 | 0.9 | 0.00 | 0.37 | 0.37 | 96 | 1011.6 |
| 20260510223702 | 58 | 22 | 1.7 | 1.7 | 0.00 | 0.37 | 0.37 | 96 | 1011.5 |
| 20260510223159 | 59 | 221 | 0.9 | 0.9 | 0.00 | 0.37 | 0.37 | 97 | 1011.6 |
| 20260510222656 | 58 | 274 | 0.0 | 0.0 | 0.00 | 0.37 | 0.37 | 97 | 1011.5 |
| 20260510222153 | 58 | 232 | 0.9 | 0.9 | 0.00 | 0.37 | 0.37 | 97 | 1011.6 |
| 20260510221648 | 58 | 5 | 0.9 | 0.9 | 0.00 | 0.37 | 0.37 | 96 | 1011.6 |
| 20260510221145 | 58 | 276 | 0.0 | 0.9 | 0.00 | 0.37 | 0.37 | 96 | 1011.6 |
| 20260510220642 | 59 | 315 | 0.9 | 1.7 | 0.00 | 0.37 | 0.37 | 97 | 1011.7 |
| 20260510220137 | 59 | 80 | 0.9 | 0.9 | 0.00 | 0.37 | 0.37 | 96 | 1011.7 |
| 20260510215634 | 58 | 229 | 0.0 | 0.9 | 0.00 | 0.37 | 0.37 | 96 | 1011.7 |
| 20260510215133 | 59 | 252 | 1.7 | 2.6 | 0.00 | 0.37 | 0.37 | 96 | 1011.7 |
| 20260510214629 | 59 | 271 | 1.7 | 1.7 | 0.00 | 0.37 | 0.37 | 96 | 1011.6 |
| 20260510214125 | 59 | 56 | 0.9 | 1.7 | 0.00 | 0.37 | 0.37 | 96 | 1011.7 |
| 20260510213623 | 58 | 202 | 0.9 | 0.9 | 0.00 | 0.37 | 0.37 | 97 | 1011.7 |
| 20260510213120 | 58 | 212 | 0.9 | 1.7 | 0.00 | 0.37 | 0.37 | 96 | 1011.7 |
| 20260510212616 | 59 | 296 | 0.9 | 0.9 | 0.00 | 0.37 | 0.37 | 97 | 1011.6 |
| 20260510212114 | 58 | 158 | 2.6 | 2.6 | 0.00 | 0.37 | 0.37 | 97 | 1011.3 |
| 20260510211610 | 58 | 355 | 3.5 | 3.5 | 0.00 | 0.37 | 0.37 | 97 | 1011.4 |
| 20260510211110 | 58 | 55 | 0.9 | 2.6 | 0.00 | 0.37 | 0.37 | 98 | 1011.6 |
| 20260510210606 | 57 | 320 | 0.9 | 0.9 | 0.00 | 0.37 | 0.37 | 99 | 1011.5 |
| 20260510205601 | 58 | 358 | 0.9 | 0.9 | 0.00 | 0.37 | 0.37 | 99 | 1011.6 |
| 20260510205057 | 57 | 281 | 1.7 | 2.6 | 0.00 | 0.37 | 0.37 | 99 | 1011.7 |
| 20260510204553 | 57 | 330 | 0.9 | 0.9 | 0.05 | 0.37 | 0.37 | 99 | 1011.7 |
| 20260510204050 | 57 | 267 | 0.0 | 0.9 | 0.05 | 0.37 | 0.37 | 99 | 1011.8 |
| 20260510203547 | 57 | 188 | 0.0 | 0.0 | 0.00 | 0.36 | 0.36 | 99 | 1011.8 |
| 20260510203044 | 57 | 41 | 1.7 | 1.7 | 0.00 | 0.36 | 0.36 | 99 | 1011.6 |
| 20260510202543 | 57 | 121 | 0.9 | 0.9 | 0.07 | 0.36 | 0.36 | 99 | 1011.7 |
| 20260510202039 | 56 | 292 | 0.0 | 0.9 | 0.19 | 0.36 | 0.36 | 99 | 1011.8 |
| 20260510201537 | 56 | 37 | 1.7 | 1.7 | 0.24 | 0.35 | 0.35 | 99 | 1011.7 |
| 20260510201033 | 56 | 36 | 1.7 | 2.6 | 0.24 | 0.33 | 0.33 | 99 | 1011.9 |
| 20260510200529 | 56 | 13 | 0.0 | 0.9 | 0.31 | 0.31 | 0.31 | 99 | 1012.3 |
| 20260510200027 | 56 | 188 | 0.9 | 0.9 | 0.66 | 0.29 | 0.29 | 99 | 1012.3 |
| 20260510195525 | 57 | 261 | 0.0 | 0.0 | 0.83 | 0.26 | 0.26 | 99 | 1012.3 |
| 20260510195020 | 57 | 275 | 0.0 | 0.0 | 0.78 | 0.18 | 0.18 | 97 | 1012.2 |
| 20260510194516 | 58 | 300 | 0.9 | 1.7 | 0.66 | 0.12 | 0.12 | 94 | 1012.3 |
| 20260510194012 | 59 | 43 | 1.7 | 2.6 | 0.24 | 0.05 | 0.05 | 89 | 1011.8 |
| 20260510193507 | 60 | 199 | 3.5 | 3.5 | 0.00 | 0.01 | 0.01 | 86 | 1011.3 |
| 20260510193003 | 60 | 0 | 0.9 | 0.9 | 0.00 | 0.01 | 0.01 | 86 | 1011.3 |
| 20260510192458 | 60 | 273 | 0.9 | 1.7 | 0.00 | 0.01 | 0.01 | 85 | 1010.9 |
| 20260510191954 | 62 | 84 | 4.3 | 5.2 | 0.00 | 0.01 | 0.01 | 83 | 1010.6 |
| 20260510191450 | 62 | 184 | 0.9 | 1.7 | 0.00 | 0.01 | 0.01 | 84 | 1010.8 |
| 20260510190948 | 61 | 244 | 0.9 | 0.9 | 0.00 | 0.01 | 0.01 | 85 | 1010.6 |
| 20260510190445 | 61 | 7 | 0.9 | 0.9 | 0.00 | 0.01 | 0.01 | 85 | 1010.8 |
| 20260510185942 | 62 | 276 | 2.6 | 5.2 | 0.00 | 0.01 | 0.01 | 83 | 1011.1 |
| 20260510185439 | 63 | 329 | 0.9 | 1.7 | 0.00 | 0.01 | 0.01 | 84 | 1011.4 |
| 20260510184936 | 63 | 210 | 2.6 | 2.6 | 0.00 | 0.01 | 0.01 | 83 | 1011.3 |
| 20260510184433 | 63 | 176 | 3.5 | 5.2 | 0.00 | 0.01 | 0.01 | 83 | 1011.5 |
| 20260510183932 | 63 | 159 | 3.5 | 5.2 | 0.00 | 0.01 | 0.01 | 81 | 1011.3 |
| 20260510183429 | 64 | 293 | 1.7 | 2.6 | 0.00 | 0.01 | 0.01 | 81 | 1011.3 |
| 20260510182924 | 63 | 227 | 1.7 | 2.6 | 0.00 | 0.01 | 0.01 | 81 | 1011.5 |
| 20260510182421 | 64 | 149 | 1.7 | 6.1 | 0.00 | 0.01 | 0.01 | 82 | 1011.5 |
| 20260510181916 | 64 | 295 | 0.9 | 0.9 | 0.00 | 0.01 | 0.01 | 83 | 1011.5 |
| 20260510181415 | 63 | 148 | 0.9 | 1.7 | 0.00 | 0.01 | 0.01 | 86 | 1011.5 |
| 20260510180910 | 64 | 232 | 1.7 | 2.6 | 0.00 | 0.01 | 0.01 | 81 | 1011.5 |
| 20260510180408 | 65 | 163 | 2.6 | 2.6 | 0.00 | 0.01 | 0.01 | 80 | 1011.6 |
| 20260510175904 | 64 | 9 | 1.7 | 1.7 | 0.00 | 0.01 | 0.01 | 81 | 1011.8 |
| 20260510175400 | 63 | 314 | 0.0 | 0.9 | 0.00 | 0.01 | 0.01 | 85 | 1011.6 |
| 20260510174856 | 63 | 25 | 0.9 | 1.7 | 0.00 | 0.01 | 0.01 | 82 | 1011.6 |
| 20260510174355 | 63 | 147 | 1.7 | 2.6 | 0.00 | 0.01 | 0.01 | 83 | 1011.8 |
| 20260510173850 | 64 | 225 | 0.9 | 0.9 | 0.00 | 0.01 | 0.01 | 84 | 1012.0 |
| 20260510173347 | 63 | 269 | 0.9 | 1.7 | 0.00 | 0.01 | 0.01 | 83 | 1012.1 |
| 20260510172843 | 65 | 113 | 1.7 | 2.6 | 0.00 | 0.01 | 0.01 | 81 | 1011.9 |
| 20260510172339 | 63 | 128 | 0.0 | 0.9 | 0.00 | 0.01 | 0.01 | 84 | 1012.1 |
| 20260510171835 | 63 | 24 | 0.9 | 1.7 | 0.00 | 0.01 | 0.01 | 83 | 1011.8 |
| 20260510171333 | 62 | 3 | 0.9 | 1.7 | 0.00 | 0.01 | 0.01 | 83 | 1012.0 |
| 20260510170830 | 62 | 164 | 0.9 | 1.7 | 0.00 | 0.01 | 0.01 | 83 | 1011.9 |
| 20260510170326 | 62 | 214 | 2.6 | 3.5 | 0.00 | 0.01 | 0.01 | 82 | 1012.0 |
| 20260510165821 | 64 | 351 | 0.9 | 1.7 | 0.00 | 0.01 | 0.01 | 83 | 1011.9 |
| 20260510165318 | 62 | 33 | 0.9 | 0.9 | 0.00 | 0.01 | 0.01 | 83 | 1011.9 |
| 20260510164815 | 62 | 167 | 0.9 | 0.9 | 0.00 | 0.01 | 0.01 | 84 | 1011.9 |
| 20260510164313 | 63 | 235 | 1.7 | 2.6 | 0.00 | 0.01 | 0.01 | 84 | 1011.8 |
| 20260510163812 | 63 | 240 | 2.6 | 3.5 | 0.00 | 0.01 | 0.01 | 82 | 1011.8 |
| 20260510163309 | 62 | 181 | 2.6 | 3.5 | 0.00 | 0.01 | 0.01 | 85 | 1011.9 |
| 20260510162808 | 62 | 171 | 2.6 | 2.6 | 0.00 | 0.01 | 0.01 | 83 | 1012.0 |
| 20260510162306 | 62 | 208 | 4.3 | 5.2 | 0.00 | 0.01 | 0.01 | 81 | 1011.9 |
| 20260510161801 | 62 | 277 | 0.0 | 0.0 | 0.00 | 0.01 | 0.01 | 82 | 1012.0 |
| 20260510161257 | 62 | 234 | 1.7 | 2.6 | 0.00 | 0.01 | 0.01 | 85 | 1012.4 |
| 20260510160755 | 62 | 217 | 1.7 | 1.7 | 0.00 | 0.01 | 0.01 | 85 | 1012.3 |
| 20260510160251 | 60 | 32 | 1.7 | 1.7 | 0.00 | 0.01 | 0.01 | 87 | 1012.4 |
| 20260510155746 | 61 | 211 | 0.9 | 0.9 | 0.00 | 0.01 | 0.01 | 89 | 1012.4 |
| 20260510155242 | 60 | 16 | 0.0 | 0.0 | 0.00 | 0.01 | 0.01 | 89 | 1012.4 |
| 20260510154738 | 59 | 169 | 2.6 | 2.6 | 0.00 | 0.01 | 0.01 | 87 | 1012.7 |
| 20260510154234 | 59 | 152 | 1.7 | 2.6 | 0.00 | 0.01 | 0.01 | 90 | 1012.8 |
| 20260510153729 | 59 | 207 | 0.9 | 0.9 | 0.00 | 0.01 | 0.01 | 91 | 1012.5 |
| 20260510153225 | 58 | 303 | 0.0 | 0.0 | 0.00 | 0.01 | 0.01 | 92 | 1012.6 |
| 20260510152722 | 57 | 232 | 0.9 | 1.7 | 0.00 | 0.01 | 0.01 | 93 | 1012.8 |
| 20260510152218 | 57 | 318 | 0.0 | 0.0 | 0.00 | 0.01 | 0.01 | 93 | 1012.8 |
| 20260510151715 | 56 | 217 | 0.0 | 0.9 | 0.00 | 0.01 | 0.01 | 94 | 1012.9 |
| 20260510151214 | 56 | 253 | 1.7 | 2.6 | 0.00 | 0.01 | 0.01 | 94 | 1012.8 |
| 20260510150709 | 55 | 288 | 0.0 | 0.0 | 0.00 | 0.01 | 0.01 | 96 | 1012.8 |
| 20260510150204 | 55 | 267 | 1.7 | 2.6 | 0.00 | 0.01 | 0.01 | 95 | 1012.9 |
| 20260510145701 | 56 | 181 | 0.9 | 0.9 | 0.00 | 0.01 | 0.01 | 95 | 1012.7 |
| 20260510145157 | 56 | 252 | 0.0 | 0.9 | 0.00 | 0.01 | 0.01 | 95 | 1012.6 |
| 20260510144654 | 55 | 246 | 0.0 | 0.0 | 0.00 | 0.01 | 0.01 | 95 | 1012.6 |
| 20260510144150 | 55 | 270 | 0.9 | 0.9 | 0.00 | 0.01 | 0.01 | 95 | 1012.7 |
| 20260510143645 | 55 | 272 | 0.9 | 1.7 | 0.00 | 0.01 | 0.01 | 94 | 1012.9 |
| 20260510143142 | 55 | 290 | 0.0 | 0.9 | 0.00 | 0.01 | 0.01 | 95 | 1012.7 |
| 20260510142638 | 55 | 289 | 0.0 | 0.0 | 0.00 | 0.01 | 0.01 | 95 | 1012.8 |
| 20260510142135 | 54 | 271 | 0.0 | 0.0 | 0.00 | 0.01 | 0.01 | 96 | 1013.0 |
| 20260510141632 | 54 | 276 | 0.9 | 1.7 | 0.00 | 0.01 | 0.01 | 97 | 1012.9 |
| 20260510141131 | 55 | 289 | 0.0 | 0.0 | 0.00 | 0.01 | 0.01 | 97 | 1013.0 |
| 20260510140626 | 54 | 218 | 0.9 | 1.7 | 0.00 | 0.01 | 0.01 | 97 | 1013.0 |
| 20260510140126 | 54 | 238 | 0.9 | 0.9 | 0.00 | 0.01 | 0.01 | 97 | 1012.8 |
| 20260510135621 | 54 | 277 | 0.9 | 0.9 | 0.00 | 0.01 | 0.01 | 98 | 1012.9 |
| 20260510135118 | 53 | 229 | 0.0 | 0.0 | 0.00 | 0.01 | 0.01 | 98 | 1012.8 |
| 20260510134615 | 53 | 183 | 1.7 | 2.6 | 0.00 | 0.01 | 0.01 | 98 | 1012.8 |
| 20260510134112 | 53 | 225 | 1.7 | 2.6 | 0.00 | 0.01 | 0.01 | 98 | 1012.6 |
| 20260510133608 | 53 | 255 | 0.9 | 0.9 | 0.00 | 0.01 | 0.01 | 99 | 1012.7 |
| 20260510133103 | 52 | 269 | 0.0 | 0.0 | 0.00 | 0.01 | 0.01 | 99 | 1012.7 |
| 20260510132601 | 52 | 225 | 0.9 | 0.9 | 0.00 | 0.01 | 0.01 | 99 | 1012.8 |
| 20260510132057 | 52 | 268 | 0.0 | 0.9 | 0.00 | 0.01 | 0.01 | 99 | 1012.7 |
| 20260510131555 | 52 | 227 | 1.7 | 1.7 | 0.00 | 0.01 | 0.01 | 99 | 1012.8 |
| 20260510131052 | 52 | 230 | 0.9 | 0.9 | 0.00 | 0.01 | 0.01 | 99 | 1013.0 |
| 20260510130548 | 51 | 237 | 0.9 | 1.7 | 0.00 | 0.01 | 0.01 | 99 | 1013.1 |
| 20260510130046 | 51 | 291 | 0.9 | 1.7 | 0.00 | 0.01 | 0.01 | 99 | 1013.1 |
| 20260510125542 | 51 | 258 | 0.9 | 0.9 | 0.00 | 0.01 | 0.01 | 99 | 1013.0 |
| 20260510125038 | 51 | 89 | 0.9 | 0.9 | 0.00 | 0.01 | 0.01 | 99 | 1013.0 |
| 20260510124535 | 51 | 262 | 0.0 | 0.9 | 0.00 | 0.01 | 0.01 | 99 | 1013.3 |
| 20260510124032 | 50 | 244 | 0.9 | 1.7 | 0.00 | 0.01 | 0.01 | 99 | 1013.0 |
| 20260510123527 | 50 | 233 | 0.9 | 1.7 | 0.00 | 0.01 | 0.01 | 99 | 1013.1 |
| 20260510123024 | 51 | 289 | 0.9 | 0.9 | 0.00 | 0.01 | 0.01 | 99 | 1013.4 |
| 20260510122520 | 51 | 268 | 0.0 | 0.9 | 0.00 | 0.01 | 0.01 | 99 | 1013.0 |
| 20260510122016 | 51 | 245 | 0.0 | 0.0 | 0.00 | 0.01 | 0.01 | 99 | 1012.7 |
| 20260510121513 | 50 | 232 | 0.9 | 0.9 | 0.00 | 0.01 | 0.01 | 99 | 1012.8 |
| 20260510121011 | 50 | 282 | 0.0 | 0.0 | 0.00 | 0.01 | 0.01 | 99 | 1012.5 |
| 20260510120508 | 50 | 200 | 0.0 | 0.9 | 0.00 | 0.01 | 0.01 | 99 | 1012.8 |
| 20260510120004 | 50 | 185 | 0.9 | 0.9 | 0.00 | 0.01 | 0.01 | 99 | 1013.0 |
| 20260510115501 | 50 | 264 | 0.9 | 0.9 | 0.00 | 0.01 | 0.01 | 99 | 1012.8 |
| 20260510114956 | 50 | 290 | 0.0 | 0.0 | 0.00 | 0.01 | 0.01 | 99 | 1012.8 |
| 20260510114453 | 50 | 276 | 0.0 | 0.9 | 0.00 | 0.01 | 0.01 | 99 | 1012.5 |
| 20260510113949 | 50 | 284 | 0.0 | 0.0 | 0.00 | 0.01 | 0.01 | 99 | 1012.6 |
| 20260510113444 | 50 | 270 | 0.0 | 0.0 | 0.00 | 0.01 | 0.01 | 99 | 1012.7 |
| 20260510112942 | 49 | 239 | 0.9 | 0.9 | 0.00 | 0.01 | 0.01 | 99 | 1012.7 |
| 20260510112439 | 49 | 232 | 0.9 | 1.7 | 0.00 | 0.01 | 0.01 | 99 | 1012.3 |
| 20260510111936 | 49 | 76 | 0.0 | 0.9 | 0.00 | 0.01 | 0.01 | 99 | 1011.9 |
| 20260510111431 | 49 | 211 | 1.7 | 1.7 | 0.00 | 0.01 | 0.01 | 99 | 1012.4 |
| 20260510110927 | 49 | 236 | 0.9 | 0.9 | 0.00 | 0.01 | 0.01 | 99 | 1012.1 |
| 20260510110424 | 49 | 286 | 0.0 | 0.0 | 0.00 | 0.01 | 0.01 | 99 | 1012.1 |
| 20260510105920 | 49 | 208 | 0.9 | 0.9 | 0.00 | 0.01 | 0.01 | 99 | 1012.1 |
| 20260510105415 | 49 | 267 | 0.0 | 0.9 | 0.00 | 0.01 | 0.01 | 99 | 1011.8 |
| 20260510104911 | 49 | 179 | 0.9 | 1.7 | 0.00 | 0.01 | 0.01 | 99 | 1011.7 |
| 20260510104408 | 49 | 250 | 0.0 | 0.9 | 0.00 | 0.01 | 0.01 | 99 | 1011.8 |
| 20260510103904 | 49 | 244 | 1.7 | 1.7 | 0.00 | 0.01 | 0.01 | 99 | 1011.7 |
| 20260510103401 | 48 | 259 | 0.0 | 0.0 | 0.00 | 0.01 | 0.01 | 99 | 1011.4 |
| 20260510102856 | 48 | 229 | 1.7 | 1.7 | 0.00 | 0.01 | 0.01 | 99 | 1011.8 |
| 20260510102347 | 48 | 249 | 0.9 | 1.7 | 0.00 | 0.01 | 0.01 | 99 | 1011.7 |
| 20260510101844 | 49 | 229 | 0.9 | 1.7 | 0.00 | 0.01 | 0.01 | 99 | 1012.0 |
| 20260510101342 | 48 | 265 | 0.0 | 0.9 | 0.00 | 0.01 | 0.01 | 99 | 1011.6 |
| 20260510100838 | 48 | 270 | 0.0 | 0.0 | 0.00 | 0.01 | 0.01 | 99 | 1011.4 |
| 20260510100336 | 48 | 257 | 0.0 | 0.0 | 0.00 | 0.01 | 0.01 | 99 | 1011.4 |
| 20260510095832 | 48 | 192 | 0.0 | 0.9 | 0.00 | 0.01 | 0.01 | 99 | 1011.5 |
| 20260510095327 | 48 | 282 | 0.0 | 0.0 | 0.00 | 0.01 | 0.01 | 99 | 1011.5 |
| 20260510094821 | 48 | 285 | 0.0 | 0.9 | 0.00 | 0.01 | 0.01 | 99 | 1011.5 |
| 20260510094316 | 48 | 269 | 0.0 | 0.0 | 0.00 | 0.01 | 0.01 | 99 | 1011.4 |
| 20260510093813 | 48 | 274 | 0.0 | 0.0 | 0.00 | 0.01 | 0.01 | 99 | 1011.4 |
| 20260510093309 | 48 | 285 | 0.0 | 0.0 | 0.00 | 0.01 | 0.01 | 99 | 1011.5 |
| 20260510092806 | 48 | 249 | 0.0 | 0.0 | 0.00 | 0.01 | 0.01 | 99 | 1011.6 |
| 20260510092301 | 48 | 298 | 0.0 | 0.0 | 0.00 | 0.01 | 0.01 | 99 | 1011.5 |
| 20260510091757 | 48 | 304 | 0.0 | 0.0 | 0.00 | 0.01 | 0.01 | 99 | 1011.6 |
| 20260510091255 | 48 | 302 | 0.0 | 0.0 | 0.00 | 0.01 | 0.01 | 99 | 1011.6 |
| 20260510090751 | 48 | 284 | 0.0 | 0.0 | 0.00 | 0.01 | 0.01 | 99 | 1011.8 |
| 20260510090248 | 48 | 283 | 0.0 | 0.0 | 0.00 | 0.01 | 0.01 | 99 | 1011.6 |
| 20260510085743 | 48 | 283 | 0.0 | 0.0 | 0.00 | 0.01 | 0.01 | 99 | 1011.8 |
| 20260510085238 | 48 | 285 | 0.0 | 0.0 | 0.00 | 0.01 | 0.01 | 99 | 1011.6 |
| 20260510084734 | 47 | 294 | 0.0 | 0.0 | 0.00 | 0.01 | 0.01 | 99 | 1011.2 |
| 20260510084231 | 47 | 281 | 0.0 | 0.0 | 0.00 | 0.01 | 0.01 | 99 | 1011.5 |
| 20260510083727 | 48 | 284 | 0.0 | 0.0 | 0.00 | 0.01 | 0.01 | 99 | 1011.4 |
| 20260510083225 | 47 | 305 | 0.0 | 0.0 | 0.00 | 0.01 | 0.01 | 99 | 1011.3 |
| 20260510082720 | 47 | 308 | 0.0 | 0.0 | 0.00 | 0.01 | 0.01 | 99 | 1011.5 |
| 20260510082217 | 47 | 337 | 0.0 | 0.0 | 0.07 | 0.01 | 0.01 | 99 | 1011.6 |
| 20260510081716 | 47 | 287 | 0.0 | 0.0 | 0.07 | 0.01 | 0.01 | 99 | 1011.9 |
| 20260510081212 | 47 | 283 | 0.0 | 0.0 | 0.07 | 0.01 | 0.01 | 99 | 1011.9 |
| 20260510080707 | 47 | 291 | 0.0 | 0.0 | 0.00 | 0.00 | 0.00 | 99 | 1011.7 |
| 20260510080204 | 47 | 294 | 0.0 | 0.0 | 0.00 | 0.00 | 0.00 | 99 | 1011.7 |
| 20260510075700 | 47 | 287 | 0.0 | 0.0 | 0.00 | 0.00 | 0.00 | 99 | 1011.7 |
| 20260510075158 | 47 | 282 | 0.0 | 0.0 | 0.00 | 0.00 | 0.00 | 99 | 1011.8 |
| 20260510074655 | 47 | 280 | 0.0 | 0.0 | 0.00 | 0.00 | 0.00 | 99 | 1011.6 |
| 20260510074151 | 47 | 285 | 0.0 | 0.0 | 0.00 | 0.00 | 0.00 | 99 | 1011.5 |
| 20260510073648 | 47 | 300 | 0.0 | 0.0 | 0.00 | 0.00 | 0.00 | 99 | 1011.7 |
| 20260510073144 | 47 | 303 | 0.0 | 0.0 | 0.00 | 0.00 | 0.00 | 99 | 1011.4 |
| 20260510072640 | 47 | 305 | 0.0 | 0.0 | 0.00 | 0.00 | 0.00 | 99 | 1011.6 |
| 20260510072136 | 47 | 290 | 0.0 | 0.0 | 0.00 | 0.00 | 0.00 | 99 | 1011.5 |
| 20260510071632 | 46 | 320 | 0.0 | 0.0 | 0.00 | 0.00 | 0.00 | 99 | 1011.5 |
| 20260510071130 | 46 | 321 | 0.0 | 0.0 | 0.00 | 0.00 | 0.00 | 99 | 1011.6 |
| 20260510070628 | 46 | 277 | 0.0 | 0.0 | 0.00 | 0.00 | 0.00 | 99 | 1011.5 |
| 20260510070125 | 46 | 279 | 0.0 | 0.0 | 0.00 | 0.00 | 0.00 | 99 | 1011.7 |
| 20260510065620 | 46 | 279 | 0.0 | 0.0 | 0.00 | 0.00 | 0.00 | 99 | 1011.6 |
| 20260510065116 | 46 | 319 | 0.0 | 0.0 | 0.00 | 0.00 | 0.00 | 99 | 1011.7 |
| 20260510064613 | 46 | 314 | 0.0 | 0.9 | 0.00 | 0.00 | 0.00 | 99 | 1011.7 |
| 20260510064110 | 46 | 324 | 0.0 | 0.0 | 0.00 | 0.00 | 0.00 | 99 | 1012.1 |
| 20260510063607 | 46 | 313 | 0.0 | 0.0 | 0.00 | 0.00 | 0.00 | 99 | 1012.3 |
| 20260510063103 | 46 | 300 | 0.0 | 0.0 | 0.00 | 0.00 | 0.00 | 99 | 1012.2 |
| 20260510062554 | 46 | 296 | 0.0 | 0.0 | 0.00 | 0.00 | 0.00 | 99 | 1012.3 |
| 20260510062049 | 46 | 299 | 0.0 | 0.0 | 0.00 | 0.00 | 0.00 | 99 | 1012.3 |
| 20260510061546 | 46 | 305 | 0.0 | 0.0 | 0.00 | 0.00 | 0.00 | 99 | 1012.4 |
| 20260510061043 | 46 | 290 | 0.0 | 0.0 | 0.00 | 0.00 | 0.00 | 99 | 1012.4 |
| 20260510060539 | 46 | 294 | 0.0 | 0.0 | 0.00 | 0.00 | 0.00 | 99 | 1012.5 |
| 20260510060035 | 46 | 296 | 0.0 | 0.0 | 0.00 | 0.00 | 0.00 | 99 | 1012.5 |
| 20260510055531 | 46 | 302 | 0.0 | 0.0 | 0.00 | 0.00 | 0.00 | 99 | 1012.3 |
| 20260510055030 | 45 | 296 | 0.0 | 0.0 | 0.00 | 0.00 | 0.00 | 99 | 1012.5 |
| 20260510054525 | 45 | 298 | 0.0 | 0.0 | 0.00 | 0.00 | 0.00 | 99 | 1012.4 |
| 20260510054020 | 45 | 290 | 0.0 | 0.0 | 0.00 | 0.00 | 0.00 | 99 | 1012.6 |
| 20260510053515 | 45 | 293 | 0.0 | 0.0 | 0.00 | 0.00 | 0.00 | 99 | 1012.5 |
| 20260510053013 | 45 | 288 | 0.0 | 0.0 | 0.00 | 0.00 | 0.00 | 99 | 1012.6 |
| 20260510052509 | 45 | 277 | 0.0 | 0.0 | 0.00 | 0.00 | 0.00 | 99 | 1012.6 |
| 20260510052005 | 45 | 288 | 0.0 | 0.0 | 0.00 | 0.00 | 0.00 | 99 | 1012.6 |
| 20260510051500 | 45 | 299 | 0.0 | 0.0 | 0.00 | 0.00 | 0.00 | 99 | 1012.4 |
| 20260510050957 | 45 | 276 | 0.0 | 0.0 | 0.00 | 0.00 | 0.00 | 99 | 1012.6 |
| 20260510050454 | 45 | 279 | 0.0 | 0.0 | 0.00 | 0.00 | 0.00 | 99 | 1012.6 |
| 20260510045951 | 45 | 281 | 0.0 | 0.0 | 0.00 | 0.00 | 0.00 | 99 | 1012.6 |
| 20260510045449 | 45 | 294 | 0.0 | 0.0 | 0.00 | 0.00 | 0.00 | 99 | 1012.5 |
| 20260510044945 | 45 | 299 | 0.0 | 0.0 | 0.00 | 0.00 | 0.00 | 99 | 1012.6 |
| 20260510044442 | 45 | 309 | 0.0 | 0.0 | 0.00 | 0.00 | 0.00 | 99 | 1012.6 |
| 20260510043939 | 45 | 291 | 0.0 | 0.0 | 0.00 | 0.00 | 0.00 | 99 | 1012.8 |
| 20260510043434 | 45 | 286 | 0.0 | 0.0 | 0.00 | 0.00 | 0.00 | 99 | 1012.9 |
| 20260510042933 | 45 | 294 | 0.0 | 0.0 | 0.00 | 0.00 | 0.00 | 99 | 1012.8 |
| 20260510042429 | 45 | 296 | 0.0 | 0.0 | 0.00 | 0.00 | 0.00 | 99 | 1012.7 |
| 20260510041924 | 45 | 288 | 0.0 | 0.0 | 0.00 | 0.00 | 0.00 | 99 | 1012.9 |
| 20260510041422 | 45 | 292 | 0.0 | 0.0 | 0.00 | 0.00 | 0.00 | 99 | 1012.9 |
| 20260510040919 | 45 | 288 | 0.0 | 0.0 | 0.00 | 0.00 | 0.00 | 99 | 1012.8 |
| 20260510040416 | 45 | 307 | 0.0 | 0.0 | 0.00 | 0.00 | 0.00 | 99 | 1013.0 |
| 20260510035911 | 45 | 287 | 0.0 | 0.0 | 0.00 | 0.45 | 0.45 | 99 | 1013.0 |
| 20260510035408 | 45 | 298 | 0.0 | 0.0 | 0.00 | 0.45 | 0.45 | 99 | 1013.0 |
| 20260510034903 | 44 | 288 | 0.0 | 0.0 | 0.00 | 0.45 | 0.45 | 99 | 1013.0 |
| 20260510034402 | 45 | 290 | 0.0 | 0.0 | 0.00 | 0.45 | 0.45 | 99 | 1012.9 |
| 20260510033857 | 44 | 275 | 0.0 | 0.0 | 0.00 | 0.45 | 0.45 | 99 | 1013.3 |
| 20260510033354 | 44 | 288 | 0.0 | 0.0 | 0.00 | 0.45 | 0.45 | 99 | 1013.3 |
| 20260510032850 | 44 | 305 | 0.0 | 0.0 | 0.00 | 0.45 | 0.45 | 99 | 1013.3 |
| 20260510032347 | 45 | 280 | 0.0 | 0.0 | 0.00 | 0.45 | 0.45 | 99 | 1013.3 |
| 20260510031843 | 44 | 300 | 0.0 | 0.0 | 0.00 | 0.45 | 0.45 | 99 | 1013.1 |
| 20260510031338 | 44 | 285 | 0.0 | 0.0 | 0.00 | 0.45 | 0.45 | 99 | 1013.1 |
| 20260510030838 | 44 | 283 | 0.0 | 0.0 | 0.00 | 0.45 | 0.45 | 99 | 1013.1 |
| 20260510030335 | 44 | 316 | 0.0 | 0.0 | 0.00 | 0.45 | 0.45 | 99 | 1013.4 |
| 20260510025833 | 45 | 300 | 0.0 | 0.0 | 0.00 | 0.45 | 0.45 | 99 | 1013.4 |
| 20260510025330 | 45 | 308 | 0.0 | 0.0 | 0.00 | 0.45 | 0.45 | 99 | 1013.4 |
| 20260510024826 | 44 | 315 | 0.0 | 0.0 | 0.05 | 0.45 | 0.45 | 99 | 1013.6 |
| 20260510024323 | 44 | 298 | 0.0 | 0.0 | 0.05 | 0.45 | 0.45 | 99 | 1013.5 |
| 20260510023820 | 44 | 288 | 0.0 | 0.0 | 0.07 | 0.44 | 0.44 | 99 | 1013.6 |
| 20260510023316 | 44 | 313 | 0.0 | 0.0 | 0.12 | 0.44 | 0.44 | 99 | 1013.5 |
| 20260510022813 | 44 | 284 | 0.0 | 0.0 | 0.12 | 0.43 | 0.43 | 99 | 1013.6 |
| 20260510022312 | 44 | 301 | 0.0 | 0.0 | 0.19 | 0.42 | 0.42 | 99 | 1013.5 |
| 20260510021812 | 44 | 296 | 0.0 | 0.0 | 0.17 | 0.41 | 0.41 | 99 | 1013.7 |
| 20260510021310 | 44 | 307 | 0.0 | 0.0 | 0.05 | 0.39 | 0.39 | 99 | 1013.6 |
| 20260510020806 | 44 | 313 | 0.0 | 0.0 | 0.00 | 0.38 | 0.38 | 99 | 1013.7 |
| 20260510020305 | 45 | 311 | 0.0 | 0.0 | 0.00 | 0.38 | 0.38 | 99 | 1013.7 |
| 20260510015802 | 45 | 290 | 0.0 | 0.0 | 0.07 | 0.38 | 0.38 | 99 | 1013.7 |
| 20260510015258 | 44 | 300 | 0.0 | 0.0 | 0.07 | 0.38 | 0.38 | 99 | 1013.6 |
| 20260510014753 | 44 | 284 | 0.0 | 0.0 | 0.00 | 0.37 | 0.37 | 99 | 1013.5 |
| 20260510014251 | 44 | 271 | 0.0 | 0.0 | 0.00 | 0.37 | 0.37 | 99 | 1013.6 |
| 20260510013747 | 44 | 343 | 0.0 | 0.0 | 0.00 | 0.37 | 0.37 | 99 | 1013.5 |
| 20260510013242 | 44 | 288 | 0.0 | 0.9 | 0.00 | 0.37 | 0.37 | 99 | 1013.6 |
| 20260510012738 | 44 | 304 | 0.0 | 0.0 | 0.00 | 0.37 | 0.37 | 99 | 1013.7 |
| 20260510012232 | 44 | 269 | 0.0 | 0.0 | 0.00 | 0.37 | 0.37 | 99 | 1013.5 |
| 20260510011727 | 44 | 347 | 0.0 | 0.9 | 0.00 | 0.37 | 0.37 | 99 | 1013.4 |
| 20260510011222 | 44 | 290 | 0.0 | 0.0 | 0.00 | 0.37 | 0.37 | 99 | 1013.5 |
| 20260510010719 | 44 | 276 | 0.0 | 0.0 | 0.00 | 0.37 | 0.37 | 99 | 1013.6 |
| 20260510010216 | 44 | 316 | 0.0 | 0.0 | 0.00 | 0.37 | 0.37 | 99 | 1013.5 |
| 20260510005712 | 44 | 344 | 0.9 | 0.9 | 0.00 | 0.37 | 0.37 | 99 | 1013.6 |
| 20260510005208 | 44 | 173 | 0.9 | 0.9 | 0.00 | 0.37 | 0.37 | 99 | 1013.3 |
| 20260510004707 | 44 | 304 | 0.9 | 0.9 | 0.00 | 0.37 | 0.37 | 99 | 1013.4 |
| 20260510004204 | 44 | 9 | 0.9 | 1.7 | 0.00 | 0.37 | 0.37 | 99 | 1013.3 |
| 20260510003702 | 44 | 311 | 0.0 | 0.0 | 0.00 | 0.37 | 0.37 | 99 | 1013.2 |
| 20260510003157 | 44 | 67 | 1.7 | 2.6 | 0.00 | 0.37 | 0.37 | 99 | 1013.1 |
| 20260510002651 | 44 | 15 | 0.0 | 0.9 | 0.00 | 0.37 | 0.37 | 99 | 1013.3 |
| 20260510002148 | 44 | 4 | 0.9 | 0.9 | 0.00 | 0.37 | 0.37 | 99 | 1013.3 |
| 20260510001645 | 44 | 26 | 0.9 | 0.9 | 0.00 | 0.37 | 0.37 | 99 | 1013.2 |
| 20260510001144 | 44 | 347 | 0.9 | 0.9 | 0.00 | 0.37 | 0.37 | 99 | 1013.4 |
| 20260510000645 | 44 | 5 | 0.9 | 0.9 | 0.05 | 0.37 | 0.37 | 99 | 1013.4 |
| 20260510000143 | 44 | 314 | 0.0 | 0.0 | 0.05 | 0.37 | 0.37 | 99 | 1013.6 |
| 20260509235639 | 44 | 22 | 1.7 | 1.7 | 0.00 | 0.36 | 0.36 | 99 | 1013.7 |
| 20260509235136 | 44 | 343 | 0.0 | 0.9 | 0.07 | 0.36 | 0.36 | 99 | 1013.6 |
| 20260509234631 | 44 | 332 | 0.9 | 0.9 | 0.07 | 0.36 | 0.36 | 99 | 1013.5 |